星链-3218 (STARLINK-3218 )

导读 | 豆包AI

STARLINK-3218是美国SpaceX公司星链(Starlink)卫星互联网项目的一员,于2021年12月2日发射升空,运行在近地轨道,属于低轨通信卫星。作为全球星链星座的组成部分,它依托Ku和Ka频段通信技术,为全球尤其是偏远地区提供高速低延迟的宽带互联网接入服务,具备自主变轨避撞能力,助力星链实现全球网络覆盖的目标,星链卫星设计寿命约为5至7年。

Basic Information
目录编号:
49725
目录名称:
STARLINK-3218
国际标识:
2021-115B
轨道中心:
EARTH
卫星名称:
星链-3218
卫星全名:
星链-3218 (STARLINK-3218 )
卫星状态:
在轨 (已飞行1611 天)
发射日期:
2021-12-02 UTC
国别 :
美国 (US)
星等 :
--
Orbit Information
数据来源 国际轨道数据 AOE轨道数据
星历时间 2026-05-01T03:20:45+0800
9小时前
查看轨道信息
2026-04-29T13:00:00+0800
1天前
查看轨道信息
半长轴 6917.877km 6917.88km
偏心率 0.0001244 0.0001367
轨道倾角 53.218° 53.217°
近地点辐角 90.893° 85.845°
升交点赤经 275.268° 282.440°
平近点角 269.221° 230.887°
近地点 538.879km 538.797km
远地点 540.601km 540.689km
周期 95.437分钟 95.438分钟
每日圈数 15.088412 15.088404
Detailed Information
固有亮度:
5
最大亮度:
2.5
卫星平台:
Starlink v1.5
覆盖范围:
全球
运营商:
太空探索技术公司
运营商所在国:
美国
制造商(研发单位):
太空探索技术公司
制造商所在国:
美国
使用方式:
暂无
Satellite Introduction
星链(Starlink)计划是由太空探索技术公司(SpaceX)提出的一个巨型低轨卫星互联网星座项目,计划在2019年至2024年间在太空搭建由约1.2万颗卫星组成的“星链”网络,其中1584颗将部署在地球上空550千米处的近地轨道,并从2020年开始工作。该卫星仍在工作。
2D Orbit Map
3D Orbit Map
Orbit Altitude Analysis Chart
Orbit Inclination Analysis Chart
Orbit Comprehensive Analysis Chart
View Comprehensive Chart